Overview Statistics Trail Chart Weather Telemetry Raw packets
 

This is the latest recevied weather packets stored in our database for station/object ED3YAB-7. If no packets are shown the sender has not sent any weather packets the latest 10 day(s).

<< 18 19 20 21 22 23 24 >>
Time Temp. Humidity Pressure Rain* Wind** Luminosity Snow
1777740494 18.89° C 44% 1024.5 hPa - - - -
1777739301 20° C 40% 1024.8 hPa - - - -
1777739294 20° C 40% 1024.8 hPa - - - -
1777738101 26.67° C 29% 1024.4 hPa - - - -
1777738094 26.67° C 29% 1024.4 hPa - - - -
1777736905 20° C 39% 1025 hPa - - - -
1777736894 20° C 39% 1025 hPa - - - -
1777735701 19.44° C 42% 1025.2 hPa - - - -
1777735693 19.44° C 42% 1025.2 hPa - - - -
1777734493 21.11° C 40% 1025.3 hPa - - - -
1777733300 23.33° C 35% 1025.3 hPa - - - -
1777733293 23.33° C 35% 1025.3 hPa - - - -
1777732100 27.22° C 29% 1025.4 hPa - - - -
1777732093 27.22° C 29% 1025.4 hPa - - - -
1777730900 31.11° C 27% 1025.8 hPa - - - -
1777730893 31.11° C 27% 1025.8 hPa - - - -
1777729693 21.11° C 40% 1026.2 hPa - - - -
1777728500 20.56° C 40% 1026.4 hPa - - - -
1777728492 20.56° C 40% 1026.4 hPa - - - -
1777727294 21.67° C 36% 1026.6 hPa - - - -
1777726101 23.89° C 32% 1026.3 hPa - - - -
1777726094 23.89° C 32% 1026.3 hPa - - - -
1777724905 25° C 31% 1026.5 hPa - - - -
1777724894 25° C 31% 1026.5 hPa - - - -
1777723694 23.89° C 33% 1026.8 hPa - - - -

* Rain since midnight (hover to see other rain measurements)
** Current wind speed in m/s (hover to see current wind gust speed)